GLO1941 SBPL-SBSV

Flight info

Callsign GLO1941
Flight time 0h 45m
Altitude 31000
Route DCT EDMUP DCT DORMU
Aircraft B38M/M-SDFGHIJ4J5KLORWXY/LB1

Departure

Time 2026-04-28 05:05
Airport Senador Nilo Coelho Airport (SBPL)

Arrival

Time 2026-04-28 05:50
Airport Deputado Luiz Eduardo Magalhães International Airport (SBSV)
Time Latitude Longitude Altitude Speed Heading
2026-04-28 04:48 -9.36589 -40.56555 1292 ft 0 kts 200°
2026-04-28 04:55 -9.36584 -40.56554 1293 ft 4 kts 201°
2026-04-28 04:55 -9.36562 -40.56540 1295 ft 4 kts 233°
2026-04-28 04:55 -9.36557 -40.56520 1293 ft 2 kts 288°
2026-04-28 04:55 -9.36557 -40.56518 1293 ft 0 kts 289°
2026-04-28 04:58 -9.36554 -40.56528 1293 ft 4 kts 289°
2026-04-28 04:58 -9.36544 -40.56559 1293 ft 4 kts 287°
2026-04-28 04:58 -9.36534 -40.56582 1294 ft 3 kts 307°
2026-04-28 04:59 -9.36521 -40.56589 1293 ft 1 kts 346°
2026-04-28 04:59 -9.36517 -40.56589 1293 ft 0 kts
2026-04-28 04:59 -9.36508 -40.56588 1293 ft 3 kts
2026-04-28 04:59 -9.36481 -40.56580 1293 ft 4 kts 19°
2026-04-28 05:00 -9.36457 -40.56571 1291 ft 3 kts 19°
2026-04-28 05:00 -9.36431 -40.56562 1291 ft 5 kts 19°
2026-04-28 05:00 -9.36392 -40.56558 1291 ft 7 kts 350°
2026-04-28 05:00 -9.36361 -40.56595 1291 ft 8 kts 296°
2026-04-28 05:01 -9.36339 -40.56651 1295 ft 9 kts 289°
2026-04-28 05:01 -9.36316 -40.56718 1296 ft 11 kts 289°
2026-04-28 05:01 -9.36289 -40.56797 1297 ft 13 kts 289°
2026-04-28 05:01 -9.36256 -40.56893 1295 ft 16 kts 289°
2026-04-28 05:02 -9.36217 -40.57008 1296 ft 18 kts 289°
2026-04-28 05:02 -9.36172 -40.57137 1295 ft 21 kts 289°
2026-04-28 05:02 -9.36122 -40.57284 1292 ft 23 kts 289°
2026-04-28 05:02 -9.36067 -40.57446 1293 ft 25 kts 289°
2026-04-28 05:03 -9.36006 -40.57622 1293 ft 28 kts 289°
2026-04-28 05:03 -9.35942 -40.57810 1293 ft 29 kts 289°
2026-04-28 05:03 -9.35878 -40.57996 1294 ft 28 kts 289°
2026-04-28 05:03 -9.35814 -40.58181 1296 ft 24 kts 288°
2026-04-28 05:04 -9.35815 -40.58286 1294 ft 8 kts 277°
2026-04-28 05:04 -9.35794 -40.58299 1294 ft 3 kts 12°
2026-04-28 05:04 -9.35785 -40.58283 1294 ft 6 kts 81°
2026-04-28 05:04 -9.35822 -40.58160 1294 ft 44 kts 109°
2026-04-28 05:05 -9.36002 -40.57634 1294 ft 111 kts 109°
2026-04-28 05:05 -9.36317 -40.56713 1299 ft 164 kts 109°
2026-04-28 05:05 -9.36707 -40.55557 1742 ft 174 kts 109°
2026-04-28 05:05 -9.37094 -40.54416 2540 ft 168 kts 111°
2026-04-28 05:06 -9.37482 -40.53326 3393 ft 164 kts 111°
2026-04-28 05:06 -9.37951 -40.52204 3834 ft 185 kts 126°
2026-04-28 05:06 -9.39006 -40.51338 4203 ft 211 kts 153°
2026-04-28 05:06 -9.40498 -40.50919 4660 ft 234 kts 164°
2026-04-28 05:07 -9.42150 -40.50546 5100 ft 254 kts 164°
2026-04-28 05:07 -9.43916 -40.50140 5594 ft 270 kts 164°
2026-04-28 05:07 -9.45724 -40.49725 6421 ft 272 kts 165°
2026-04-28 05:07 -9.47540 -40.49307 7107 ft 277 kts 166°
2026-04-28 05:08 -9.49438 -40.48870 7869 ft 280 kts 166°
2026-04-28 05:08 -9.51349 -40.48429 8638 ft 283 kts 167°
2026-04-28 05:08 -9.53279 -40.47985 9442 ft 285 kts 167°
2026-04-28 05:08 -9.55228 -40.47535 10177 ft 290 kts 167°
2026-04-28 05:09 -9.57242 -40.47067 10584 ft 307 kts 167°
2026-04-28 05:09 -9.58646 -40.46739 10796 ft 318 kts 167°
2026-04-28 05:09 -9.61609 -40.46048 11417 ft 332 kts 166°
2026-04-28 05:09 -9.63106 -40.45701 11918 ft 333 kts 166°
2026-04-28 05:10 -9.66125 -40.45005 12830 ft 340 kts 166°
2026-04-28 05:10 -9.68448 -40.44469 13583 ft 344 kts 165°
2026-04-28 05:10 -9.70034 -40.44103 14046 ft 347 kts 165°
2026-04-28 05:10 -9.72373 -40.43564 14720 ft 351 kts 165°
2026-04-28 05:11 -9.74769 -40.43012 15423 ft 354 kts 165°
2026-04-28 05:11 -9.77181 -40.42455 16091 ft 357 kts 165°
2026-04-28 05:11 -9.79616 -40.41893 16757 ft 360 kts 164°
2026-04-28 05:11 -9.82070 -40.41327 17401 ft 364 kts 164°
2026-04-28 05:12 -9.84548 -40.40756 18035 ft 367 kts 164°
2026-04-28 05:12 -9.87051 -40.40177 18601 ft 370 kts 164°
2026-04-28 05:12 -9.89582 -40.39593 19117 ft 374 kts 164°
2026-04-28 05:12 -9.92122 -40.39007 19635 ft 377 kts 164°
2026-04-28 05:13 -9.94662 -40.38420 20146 ft 380 kts 163°
2026-04-28 05:13 -9.97254 -40.37821 20654 ft 383 kts 163°
2026-04-28 05:13 -9.99868 -40.37217 21159 ft 386 kts 163°
2026-04-28 05:13 -10.02509 -40.36607 21664 ft 390 kts 163°
2026-04-28 05:14 -10.05167 -40.35993 22167 ft 393 kts 163°
2026-04-28 05:14 -10.07852 -40.35372 22668 ft 396 kts 163°
2026-04-28 05:14 -10.10522 -40.34755 23169 ft 399 kts 163°
2026-04-28 05:14 -10.13245 -40.34126 23659 ft 403 kts 163°
2026-04-28 05:15 -10.15981 -40.33493 24083 ft 406 kts 163°
2026-04-28 05:15 -10.18745 -40.32855 24486 ft 409 kts 163°
2026-04-28 05:15 -10.21538 -40.32209 24869 ft 412 kts 163°
2026-04-28 05:15 -10.24333 -40.31562 25309 ft 413 kts 163°
2026-04-28 05:16 -10.27159 -40.30908 25748 ft 416 kts 163°
2026-04-28 05:16 -10.29966 -40.30259 26161 ft 419 kts 164°
2026-04-28 05:16 -10.32820 -40.29598 26576 ft 422 kts 164°
2026-04-28 05:17 -10.38586 -40.28263 27397 ft 427 kts 164°
2026-04-28 05:17 -10.41491 -40.27590 27755 ft 431 kts 165°
2026-04-28 05:17 -10.44434 -40.26908 28144 ft 434 kts 165°
2026-04-28 05:17 -10.47384 -40.26224 28533 ft 436 kts 165°
2026-04-28 05:18 -10.50347 -40.25538 28917 ft 439 kts 165°
2026-04-28 05:18 -10.53302 -40.24853 29289 ft 441 kts 165°
2026-04-28 05:18 -10.56347 -40.24147 29666 ft 444 kts 165°
2026-04-28 05:18 -10.59331 -40.23455 30024 ft 447 kts 165°
2026-04-28 05:19 -10.62369 -40.22751 30337 ft 449 kts 165°
2026-04-28 05:19 -10.65408 -40.22046 30652 ft 451 kts 165°
2026-04-28 05:19 -10.68481 -40.21333 30936 ft 454 kts 165°
2026-04-28 05:19 -10.71576 -40.20614 31044 ft 460 kts 166°
2026-04-28 05:20 -10.77852 -40.19157 31041 ft 463 kts 166°
2026-04-28 05:20 -10.84134 -40.17698 31041 ft 463 kts 166°
2026-04-28 05:21 -10.90417 -40.16239 31045 ft 463 kts 166°
2026-04-28 05:21 -10.96657 -40.14790 31040 ft 463 kts 166°
2026-04-28 05:22 -11.02945 -40.13328 31043 ft 463 kts 166°
2026-04-28 05:22 -11.09231 -40.11867 31042 ft 463 kts 166°
2026-04-28 05:23 -11.15508 -40.10406 31045 ft 463 kts 166°
2026-04-28 05:23 -11.21748 -40.08954 31045 ft 463 kts 166°
2026-04-28 05:24 -11.28037 -40.07490 31042 ft 463 kts 166°
2026-04-28 05:24 -11.34326 -40.06025 31046 ft 463 kts 166°
2026-04-28 05:25 -11.40613 -40.04560 31044 ft 463 kts 166°
2026-04-28 05:25 -11.46867 -40.03102 31045 ft 463 kts 166°
2026-04-28 05:26 -11.53155 -40.01635 31043 ft 463 kts 166°
2026-04-28 05:26 -11.59315 -39.99770 31028 ft 459 kts 149°
2026-04-28 05:27 -11.64371 -39.95850 31042 ft 459 kts 139°
2026-04-28 05:27 -11.69236 -39.91680 31048 ft 458 kts 138°
2026-04-28 05:28 -11.74089 -39.87449 31046 ft 458 kts 138°
2026-04-28 05:28 -11.78938 -39.83208 31042 ft 458 kts 138°
2026-04-28 05:29 -11.83740 -39.79006 31042 ft 457 kts 138°
2026-04-28 05:29 -11.88527 -39.74814 31038 ft 451 kts 138°
2026-04-28 05:30 -11.93287 -39.70644 31041 ft 450 kts 138°
2026-04-28 05:30 -11.95625 -39.68595 30754 ft 446 kts 138°
2026-04-28 05:30 -11.98007 -39.66507 29729 ft 454 kts 138°
2026-04-28 05:31 -12.00404 -39.64404 28747 ft 459 kts 137°
2026-04-28 05:31 -12.02841 -39.62267 27840 ft 462 kts 137°
2026-04-28 05:31 -12.05280 -39.60128 26986 ft 463 kts 137°
2026-04-28 05:31 -12.07726 -39.57982 26125 ft 464 kts 137°
2026-04-28 05:32 -12.10179 -39.55830 25270 ft 465 kts 137°
2026-04-28 05:32 -12.12641 -39.53668 24486 ft 464 kts 136°
2026-04-28 05:32 -12.15054 -39.51549 23850 ft 461 kts 136°
2026-04-28 05:32 -12.17468 -39.49430 23241 ft 455 kts 136°
2026-04-28 05:33 -12.19858 -39.47331 22651 ft 448 kts 136°
2026-04-28 05:33 -12.22199 -39.45275 22133 ft 440 kts 136°
2026-04-28 05:33 -12.24504 -39.43249 21625 ft 433 kts 136°
2026-04-28 05:33 -12.26772 -39.41255 21133 ft 426 kts 136°
2026-04-28 05:34 -12.29011 -39.39286 20648 ft 420 kts 137°
2026-04-28 05:34 -12.31215 -39.37347 20175 ft 415 kts 137°
2026-04-28 05:34 -12.33370 -39.35452 19714 ft 410 kts 137°
2026-04-28 05:34 -12.35523 -39.33557 19254 ft 405 kts 137°
2026-04-28 05:35 -12.37638 -39.31696 18807 ft 401 kts 137°
2026-04-28 05:35 -12.39752 -39.29836 18356 ft 397 kts 137°
2026-04-28 05:35 -12.41808 -39.28025 17856 ft 393 kts 137°
2026-04-28 05:35 -12.43876 -39.26215 17316 ft 391 kts 138°
2026-04-28 05:36 -12.45933 -39.24424 16890 ft 386 kts 137°
2026-04-28 05:36 -12.47964 -39.22655 16475 ft 381 kts 138°
2026-04-28 05:36 -12.49980 -39.20897 16048 ft 377 kts 138°
2026-04-28 05:36 -12.51975 -39.19158 15622 ft 374 kts 138°
2026-04-28 05:37 -12.53949 -39.17436 15194 ft 371 kts 138°
2026-04-28 05:37 -12.55879 -39.15752 14777 ft 369 kts 138°
2026-04-28 05:37 -12.57829 -39.14051 14345 ft 367 kts 138°
2026-04-28 05:37 -12.59768 -39.12359 13932 ft 365 kts 138°
2026-04-28 05:38 -12.61697 -39.10675 13459 ft 363 kts 139°
2026-04-28 05:38 -12.63614 -39.09001 13011 ft 361 kts 139°
2026-04-28 05:38 -12.65523 -39.07334 12593 ft 358 kts 139°
2026-04-28 05:38 -12.67409 -39.05687 12178 ft 355 kts 139°
2026-04-28 05:39 -12.69261 -39.04070 11785 ft 352 kts 139°
2026-04-28 05:39 -12.71117 -39.02448 11366 ft 350 kts 139°
2026-04-28 05:39 -12.72970 -39.00826 10950 ft 348 kts 139°
2026-04-28 05:39 -12.74791 -38.99231 10691 ft 341 kts 139°
2026-04-28 05:40 -12.76565 -38.97677 10542 ft 331 kts 139°
2026-04-28 05:40 -12.78293 -38.96162 10397 ft 321 kts 139°
2026-04-28 05:40 -12.79945 -38.94715 10247 ft 312 kts 140°
2026-04-28 05:40 -12.81597 -38.93267 10072 ft 305 kts 140°
2026-04-28 05:41 -12.83178 -38.91881 9767 ft 302 kts 140°
2026-04-28 05:41 -12.84776 -38.90480 9387 ft 302 kts 140°
2026-04-28 05:41 -12.86287 -38.88995 8991 ft 302 kts 126°
2026-04-28 05:41 -12.87183 -38.87061 8622 ft 301 kts 109°
2026-04-28 05:42 -12.87879 -38.85053 8320 ft 297 kts 110°
2026-04-28 05:42 -12.88578 -38.83066 8012 ft 295 kts 110°
2026-04-28 05:42 -12.89267 -38.81096 7693 ft 293 kts 110°
2026-04-28 05:42 -12.89949 -38.79143 7379 ft 291 kts 110°
2026-04-28 05:43 -12.90627 -38.77198 7057 ft 289 kts 110°
2026-04-28 05:43 -12.91302 -38.75260 6743 ft 288 kts 110°
2026-04-28 05:43 -12.91974 -38.73330 6420 ft 286 kts 110°
2026-04-28 05:43 -12.92634 -38.71435 6088 ft 285 kts 110°
2026-04-28 05:44 -12.93298 -38.69526 5759 ft 283 kts 110°
2026-04-28 05:44 -12.93956 -38.67635 5498 ft 279 kts 110°
2026-04-28 05:44 -12.94598 -38.65788 5361 ft 270 kts 110°
2026-04-28 05:44 -12.95220 -38.63998 5226 ft 262 kts 110°
2026-04-28 05:45 -12.95824 -38.62263 5084 ft 255 kts 110°
2026-04-28 05:45 -12.96331 -38.60547 4895 ft 250 kts 96°
2026-04-28 05:45 -12.96172 -38.58784 4614 ft 249 kts 80°
2026-04-28 05:45 -12.95824 -38.57048 4339 ft 247 kts 80°
2026-04-28 05:46 -12.95481 -38.55333 4089 ft 244 kts 80°
2026-04-28 05:46 -12.95141 -38.53640 3790 ft 243 kts 80°
2026-04-28 05:46 -12.94807 -38.51967 3492 ft 242 kts 80°
2026-04-28 05:46 -12.94469 -38.50277 3210 ft 240 kts 80°
2026-04-28 05:47 -12.94139 -38.48634 2921 ft 232 kts 79°
2026-04-28 05:47 -12.93817 -38.47032 2618 ft 226 kts 80°
2026-04-28 05:47 -12.93505 -38.45473 2329 ft 220 kts 80°
2026-04-28 05:47 -12.93205 -38.43973 2043 ft 207 kts 80°
2026-04-28 05:48 -12.92926 -38.42586 1792 ft 189 kts 80°
2026-04-28 05:48 -12.92682 -38.41367 1582 ft 165 kts 80°
2026-04-28 05:48 -12.92465 -38.40284 1367 ft 147 kts 80°
2026-04-28 05:48 -12.92262 -38.39265 1174 ft 146 kts 80°
2026-04-28 05:49 -12.92059 -38.38251 982 ft 145 kts 80°
2026-04-28 05:49 -12.91856 -38.37235 803 ft 145 kts 80°
2026-04-28 05:49 -12.91654 -38.36219 621 ft 145 kts 79°
2026-04-28 05:49 -12.91451 -38.35203 426 ft 146 kts 79°
2026-04-28 05:50 -12.91243 -38.34178 232 ft 146 kts 78°
2026-04-28 05:50 -12.91038 -38.33160 51 ft 144 kts 79°
2026-04-28 05:50 -12.90863 -38.32286 53 ft 96 kts 78°
2026-04-28 05:50 -12.90773 -38.31835 50 ft 32 kts 78°
2026-04-28 05:51 -12.90813 -38.31723 50 ft 18 kts 158°
2026-04-28 05:51 -12.90912 -38.31742 56 ft 16 kts 246°
2026-04-28 05:51 -12.90938 -38.31862 55 ft 19 kts 258°
2026-04-28 05:51 -12.90965 -38.32001 53 ft 21 kts 258°
2026-04-28 05:52 -12.90996 -38.32155 55 ft 24 kts 258°
2026-04-28 05:52 -12.91031 -38.32330 52 ft 26 kts 258°
2026-04-28 05:52 -12.91070 -38.32522 55 ft 29 kts 258°
2026-04-28 05:52 -12.91107 -38.32705 52 ft 22 kts 258°
2026-04-28 05:53 -12.91141 -38.32875 51 ft 26 kts 258°
2026-04-28 05:53 -12.91179 -38.33067 47 ft 26 kts 258°
2026-04-28 05:53 -12.91228 -38.33178 46 ft 13 kts 187°
2026-04-28 05:53 -12.91313 -38.33164 44 ft 12 kts 167°
2026-04-28 05:54 -12.91373 -38.33151 45 ft 1 kts 167°
2026-04-28 05:54 -12.91384 -38.33152 46 ft 3 kts 194°
2026-04-28 05:54 -12.91395 -38.33169 44 ft 4 kts 259°
2026-04-28 05:54 -12.91392 -38.33200 46 ft 2 kts 277°
2026-04-28 05:55 -12.91391 -38.33208 43 ft 0 kts 277°